{"data":{"norad_id":69969,"epoch":"2026-09-19T20:01:50.996928Z","epoch_age_seconds":75257,"freshness":"FRESH","line1":"1 69969U 26157AC  26262.83461802  .00020663  00000+0  62083-3 0  9998","line2":"2 69969  53.1568 336.6112 0000994  55.2338 304.8758 15.34408024 11276","mean_motion":15.34408024,"eccentricity":9.94e-5,"inclination_deg":53.1568,"raan_deg":336.6112,"arg_perigee_deg":55.2338,"mean_anomaly_deg":304.8758,"bstar":0.00062083,"rev_number":1127,"period_min":93.847267315907,"perigee_km":461.99941414276,"apogee_km":463.35936844135,"semimajor_km":6840.8163912921,"source":"CELESTRAK","updated_at":"2026-09-20T09:00:44.304282Z"}}